Location: Sternwarte Stuttgart
(48.7670°N, 9.1830°E)
Time: 07:27:11
(UTC+02:00)

Daily predictions for brighter satellites

Satellite Brightness Start Highest point End
(mag) Time Altitude Azimuth Time Altitude Azimuth Time Altitude Azimuth
Meteor 2-13 Rocket 4.5 21:32:52 10° S 21:38:58 84° E 21:45:05 10° N
ATLAS 2AS CENTAUR R/B 3.0 21:31:41 10° SSW 21:39:35 78° SE 21:47:18 10° NE
Resurs 01 Rocket 1.7 21:36:45 10° SSE 21:41:09 67° ENE 21:45:35 10° N
Cosmos 2058 3.0 21:38:48 10° S 21:42:59 84° W 21:47:13 10° N
Cosmos 2333 Rocket 4.5 21:41:05 10° N 21:43:41 13° NNE 21:46:16 10° ENE
Cosmos 773 Rocket 4.0 21:40:03 10° SSW 21:45:14 72° ESE 21:50:24 10° NNE
Cosmos 1606 2.6 21:41:56 10° N 21:45:43 75° E 21:49:30 10° SSE
USA 186 4.5 21:44:53 10° SW 21:47:01 17° W 21:49:04 10° NW
ATLAS 3B R/B 2.9 21:40:11 10° NW 21:47:17 82° NE 21:54:40 10° SE
Cosmos 371 Rocket 3.4 21:42:44 10° NNW 21:47:32 62° ENE 21:52:18 10° SE
BREEZE-M DEB (TANK) 2.2 21:44:29 10° WSW 21:48:04 49° SSE 21:49:57 10° E
RESURS DK-1 2.3 21:49:03 10° SSW 21:53:09 66° ESE 21:57:18 10° NE
Cosmos 1633 2.6 21:49:43 10° S 21:53:16 58° E 21:56:50 10° NNE
OBJECT-B 3.5 21:52:01 10° SW 21:54:23 19° W 21:56:47 10° NW
CARTOSAT-1 4.5 21:53:05 10° SE 21:56:59 34° ENE 22:00:55 10° N
Cosmos 2369 4.3 21:52:01 10° NW 21:57:34 57° WSW 22:03:05 10° S
Cosmos 2151 3.6 21:54:07 10° SSE 21:58:02 37° E 22:01:59 10° NNE
USA 276 2.1 21:56:15 10° WNW 21:59:26 80° NNE 22:02:35 10° E
Cosmos 1980 Rocket 2.4 21:54:05 10° NNW 21:59:43 73° WSW 22:05:20 10° SSE
Cosmos 1825 4.0 21:56:17 10° SW 21:59:43 34° WNW 22:03:11 10° N
BREEZE-M DEB (TANK) 3.7 21:59:20 10° SSW 22:02:52 46° SE 22:14:13 10° ENE
Cosmos 1933 3.9 21:59:36 10° N 22:03:29 42° ENE 22:07:08 11° SE
ERS-1 Rocket 3.9 22:00:40 10° SE 22:05:09 34° ENE 22:09:39 10° N
SPOT 5 3.7 22:02:24 10° SE 22:06:04 30° ENE 22:09:54 10° N
COSMOS 2406 4.0 22:00:32 10° SW 22:06:08 58° WNW 22:11:47 10° NNE
MetOp-B 4.2 22:01:54 10° SSE 22:07:15 81° ENE 22:12:39 10° NNW
ARIANE 5 R/B 3.4 22:03:38 11° SE 22:07:39 38° ENE 22:11:47 10° N
Terra 3.2 22:04:37 10° ESE 22:08:32 26° ENE 22:12:27 10° N
Cosmos 2322 Rocket 3.1 22:04:28 10° NNW 22:09:43 37° NE 22:14:40 11° ESE
SPOT 3 Rocket 3.7 22:05:22 10° SSE 22:10:36 84° WSW 22:15:53 10° NNW
Cosmos 158 Rocket 4.3 22:05:45 10° S 22:10:37 45° ESE 22:15:39 10° NNE
Gbstr 26 Del rocket 2.7 22:10:25 10° WNW 22:14:09 81° NNE 22:17:56 11° ESE
Spot 2 Rocket 3.7 22:11:55 11° SSE 22:16:44 58° ENE 22:21:46 10° N
Meteor 2-3 Rocket 4.0 22:14:17 10° S 22:19:44 52° E 22:25:18 10° NNE
Cosmos 332 Rocket 3.8 22:19:32 10° NNW 22:24:27 80° ENE 22:28:37 14° SSE
ISS -3.4 22:23:09 10° WNW 22:26:28 54° SSW 22:28:41 19° SE
ERS-2 3.5 22:23:12 10° N 22:26:41 42° WNW 22:30:07 10° SW
Cosmos 1076 Rocket 4.0 22:22:59 10° SSW 22:27:18 65° WNW 22:31:40 10° N
Cosmos 1151 Rocket 3.7 22:23:58 10° N 22:28:03 38° ENE 22:31:00 17° SE
USA 234 4.1 22:23:03 10° E 22:29:16 48° NNE 22:35:30 10° WNW
Cosmos 1092 Rocket 4.0 22:25:35 10° S 22:31:46 70° E 22:38:04 10° NNE
Cosmos 2219 Rocket 4.1 22:28:15 10° N 22:32:10 19° NE 22:36:04 10° E
Cosmos 1782 3.1 22:29:31 10° N 22:33:28 52° ENE 22:36:11 19° SSE
SL-16 R/B 2.3 22:32:01 10° NNW 22:37:42 70° ENE 22:42:00 18° SE
Cosmos 1538 Rocket 4.1 22:32:39 10° SSW 22:37:53 82° WNW 22:43:06 10° NNE
Meteor 2-19 Rocket 4.4 22:33:59 10° S 22:40:03 89° E 22:46:09 10° N
Cosmos 2098 Rocket 3.9 22:40:32 10° SW 22:43:26 36° WNW 22:46:50 10° N
Cosmos 2026 Rocket 4.0 22:39:48 10° S 22:46:06 72° E 22:52:22 10° NNE
Cosmos 1271 Rocket 2.8 22:43:09 10° NNW 22:47:09 82° W 22:50:02 18° S
CZ-2C R/B 3.9 22:46:13 10° N 22:50:47 72° WNW 22:55:13 10° SSW
GP-B 3.1 22:46:23 10° N 22:50:52 87° E 22:54:30 15° S
Cosmos 1624 Rocket 4.4 22:50:00 10° NNW 22:55:05 50° ENE 22:58:20 21° SE
ATLAS 5 CENTAUR R/B 3.9 22:57:24 10° NNW 23:01:37 25° NNE 23:06:25 10° E
Cosmos 304 Rocket 4.3 22:56:59 10° NNW 23:01:39 52° WSW 23:05:02 18° S
Okean 3 Rocket 3.6 23:04:43 21° S 23:07:39 70° E 23:12:10 10° NNE
CZ-4B DEB 4.4 23:09:19 38° SE 23:10:14 58° ENE 23:13:22 10° N
Cosmos 2082 Rocket 3.8 23:06:33 10° WSW 23:11:44 36° NW 23:16:57 10° NNE
Cosmos 220 Rocket 3.9 23:09:39 10° NNW 23:14:01 84° ENE 23:16:06 31° SSE
Resurs 01 Rocket 4.2 23:15:29 10° SW 23:18:06 15° W 23:20:45 10° NW
BREEZE-M DEB (TANK) 3.7 23:15:49 10° W 23:19:16 38° SSW 23:23:01 23° SSE
Cosmos 2360 Rocket 2.2 23:16:52 10° NNW 23:22:31 72° ENE 23:25:36 28° SE
Cosmos 923 Rocket 4.2 23:19:01 10° SSW 23:24:21 75° WNW 23:29:44 10° NNE
Meteor 1-10 Rocket 4.2 23:19:38 10° N 23:25:13 68° ENE 23:28:05 29° SSE
Cosmos 1174 4.2 23:22:58 10° NNW 23:25:49 35° NE 23:26:33 30° E
Cosmos 1408 Rocket 3.7 23:24:14 33° SSE 23:25:57 57° E 23:30:13 10° NNE
Cosmos 1743 Rocket 4.5 23:25:29 29° ESE 23:26:35 33° E 23:30:34 10° NNE
Cosmos 1553 Rocket 3.9 23:20:30 10° N 23:26:36 83° W 23:30:30 24° S
Cosmos 2333 Rocket 2.9 23:24:06 10° NNW 23:29:32 44° NE 23:32:47 22° ESE
ATLAS 2AS CENTAUR R/B 4.4 23:23:53 10° W 23:31:15 41° NNW 23:38:22 10° NE
Meteor 2-14 Rocket 4.4 23:27:36 20° S 23:32:06 86° E 23:38:17 10° N
Cosmos 2266 Rocket 4.2 23:29:46 28° SSE 23:32:52 52° E 23:38:52 10° NNE
Cosmos 2056 Rocket 3.5 23:29:39 10° NNW 23:35:03 82° WSW 23:37:36 32° SSE
USA 276 3.1 23:32:34 10° W 23:35:05 32° SW 23:35:05 32° SW
Cosmos 1812 3.0 23:31:59 10° NNW 23:35:49 62° W 23:37:16 34° SSW
USA 267 3.4 23:30:36 10° ENE 23:36:56 50° SE 23:43:15 10° SSW
ATLAS 3B R/B 4.2 23:31:38 10° WNW 23:37:24 27° WSW 23:42:22 13° SSW
Cosmos 2322 4.2 23:35:21 10° NNW 23:40:56 51° NE 23:43:59 26° ESE
Cosmos 2228 Rocket 3.8 23:38:24 10° N 23:42:36 40° ENE 23:43:53 32° ESE
ERS-1 Rocket 4.1 23:40:38 18° SSW 23:43:54 37° W 23:48:34 10° NNW
SPOT 5 4.0 23:41:38 18° SSW 23:44:08 31° W 23:48:04 10° NNW
ARIANE 5 R/B 4.3 23:41:11 14° SW 23:44:11 27° W 23:47:59 10° NW
Cosmos 2084 3.2 23:42:47 36° SSW 23:44:18 64° SE 23:48:27 10° NE
SL-27 R/B 2.4 23:44:33 57° SSE 23:45:06 69° ESE 23:48:43 10° NNE
Terra 2.6 23:43:31 24° SSW 23:46:03 45° W 23:50:39 10° NNW
NOSS 2-1 (C) 2.6 23:46:54 68° SE 23:46:59 68° SE 23:50:21 10° NE
Cosmos 1655 Rocket 4.0 23:43:54 28° S 23:47:30 75° E 23:53:54 10° NNE
Cosmos 1515 Rocket 3.6 23:43:41 10° NNW 23:48:08 77° W 23:49:44 39° S
Cosmos 2237 Rocket 4.1 23:48:03 10° N 23:52:29 23° NE 23:56:54 10° E
Cosmos 2322 Rocket 2.9 23:48:32 10° NW 23:53:51 43° WSW 23:56:28 26° SSW
NOSS 2-1 (D) 2.6 23:54:20 70° SSW 23:54:40 83° SE 23:58:04 10° NE
